Weather in Kriushi

Russia / Ulyanovsk Oblast     54°06′16″N   48°31′54″E
temp.,
°C
wind,
m/s
gust,
m/s
humid.,
%
clouds,
%
prec.,
mm/h
press.,
hPa
HPBL,
m
19 september, sun
sun1901:00+2wnw23738 0.0 1025157
04:00+2nw2379100 0.0 1025110
07:00+2nw2378100 0.0 1025146
10:00+6nnw346134 0.0 1026731
13:00+9n334553 0.0 10251025
16:00+9nne334199 0.0 10251003
19:00+6ene2253100 0.0 102587
22:00+6ene2253100 0.0 102579
20 september, mon
mon2001:00+5ese226097 0.0 102547
04:00+3ese236941 0.0 102558
07:00+3e3575100 0.0 1025124
10:00+7e4557100 0.0 1025540
13:00+9e4547100 0.0 1025970
16:00+10e4643100 0.0 10241059
19:00+10e4847100 0.0 1023432
22:00+8e3756100 0.0 1024260
21 september, tue
tue2101:00+8e41056100 0.0 1023447
04:00+8e51056100 0.0 1022528
07:00+7ese61267100 0.2 1022698
10:00+6ese61375100 0.7 1021626
13:00+6ese51182100 1.6 1020533
16:00+7ese61074100 1.8 1019516
19:00+8e5106583 0.0 1018446
22:00+8ese51167100 0.0 1017353
22 september, wed
wed2201:00+8ese41071100 0.0 1016290
04:00+9ese51174100 0.0 1014345
07:00+9ese51195100 0.1 1014440
10:00+11ese61179100 0.1 1013573
13:00+10se61296100 4.4 1013660
16:00+9se71390100 6.2 1013585
19:00+10sse51194100 0.8 1014496
22:00+10sse389689 0.9 1015281
23 september, thu
thu2301:00+9se229546 0.0 101564
04:00+9ese228987 0.0 101566
07:00+9ese2480100 0.0 1015110
10:00+11se3866100 0.0 1015322
13:00+12sse51066100 0.1 1015490
16:00+9sse41085100 2.0 1015343
19:00+9se51196100 2.6 1016588
22:00+9sse61293100 3.4 1015674